Hourly Data Report for February 25, 2005

TORONTO CITY
ONTARIO

43°40'00.000" N
79°24'00.000" W
112.50 m
6158355
71508
XTO

Download Data

Hourly Data (February 2005)
Hourly Data Report for February 25, 2005
TIME
LST
Temp Definition
°C
Dew Point Definition
°C
Rel Hum Definition
%
Precip. Amount Definition
mm

Wind Dir Definition
10's deg

Wind Spd Definition
km/h
Visibility Definition
km
Stn Press Definition
kPa
Hmdx Definition


Wind Chill Definition


Weather Definition


00:00 -8.7 -16.2 55   LegendMM LegendMM   100.82     LegendNANA
01:00 -9.0 -16.3 55   LegendMM LegendMM   100.80     LegendNANA
02:00 -9.3 -16.8 54   LegendMM LegendMM   100.78     LegendNANA
03:00 -9.7 -17.0 55   LegendMM LegendMM   100.78     LegendNANA
04:00 -9.8 -16.6 58   LegendMM LegendMM   100.73     LegendNANA
05:00 -10.1 -16.8 58   LegendMM LegendMM   100.78     LegendNANA
06:00 -10.7 -16.6 62   LegendMM LegendMM   100.76     LegendNANA
07:00 -9.8 -16.2 60   LegendMM LegendMM   100.77     LegendNANA
08:00 -8.0 -14.8 58   LegendMM LegendMM   100.83     LegendNANA
09:00 -6.6 -14.3 54   LegendMM LegendMM   100.82     LegendNANA
10:00 -5.2 -12.1 58   LegendMM LegendMM   100.75     LegendNANA
11:00 -5.4 -8.8 77   LegendMM LegendMM   100.70     LegendNANA
12:00 -4.5 -8.0 76   LegendMM LegendMM   100.68     LegendNANA
13:00 -3.4 -8.4 68   LegendMM LegendMM   100.63     LegendNANA
14:00 -4.3 -9.7 66   LegendMM LegendMM   100.58     LegendNANA
15:00 -4.3 -8.8 71   LegendMM LegendMM   100.57     LegendNANA
16:00 -4.2 -6.1 87   LegendMM LegendMM   100.53     LegendNANA
17:00 -3.9 -5.6 88   LegendMM LegendMM   100.50     LegendNANA
18:00 -3.9 -5.2 91   LegendMM LegendMM   100.52     LegendNANA
19:00 -3.7 -4.9 91   LegendMM LegendMM   100.54     LegendNANA
20:00 -3.5 -4.4 93   LegendMM LegendMM   100.50     LegendNANA
21:00 -3.0 -4.0 93   LegendMM LegendMM   100.45     LegendNANA
22:00 -2.9 -3.8 93   LegendMM LegendMM   100.42     LegendNANA
23:00 -3.1 -3.6 96   LegendMM LegendMM   100.36     LegendNANA

Notes on Data Quality.

Legend

  • E = Estimated
  • M = Missing
  • NA = Not Available*
  • [empty] = Indicates an unobserved value
Date modified: